Location: Brusselsch Zeekanaal
(50.8667°N, 4.3667°E)
Time: 23:32:58
(UTC+00:00)

ADEOS Rocket - Pass Details

Date: 08 November 2025
Orbit: 858 x 1304 km, 98.7° (Epoch: 04 December)

Event Time Altitude Azimuth Distance (km) Brightness Sun altitude
Rises 04:16:22 0° 11° (N) 3,725 6.2 -23.8°
Reaches altitude 10° 04:18:52 10° 4° (N) 2,831 5.5 -23.4°
Maximum altitude 04:24:48 42° 297° (WNW) 1,536 3.6 -22.5°
Enters shadow 04:25:41 40° 278° (W) 1,591 3.6 -22.3°
